IU5GBO-13 Weather Reports


time (UTC)temp
C
wind
direction
speed
KPH
gust
KPH
rain 1hr
cm
rain 24hr
cm
rain mn
cm
humidity
%
barometer
mb
20260507065620 18 0.0 0.0 0.00 0.00 0.00 60 1015.7
20260507064621 17 0.0 0.0 0.00 0.00 0.00 65 1015.7
20260507063621 16 0.0 0.0 0.00 0.00 0.00 67 1015.7
20260507062621 16 0.0 0.0 0.00 0.00 0.00 69 1015.6
20260507061620 16 0.0 0.0 0.00 0.00 0.00 71 1015.6
20260507060621 15 0.0 0.0 0.00 0.00 0.00 76 1015.4
20260507055620 13 0.0 0.0 0.00 0.00 0.00 77 1015.5
20260507054621 13 0.0 0.0 0.00 0.00 0.00 80 1015.2
20260507053620 13 0.0 0.0 0.00 0.00 0.00 82 1015.2
20260507052621 12 0.0 0.0 0.00 0.00 0.00 81 1015.2
20260507051620 12 0.0 0.0 0.00 0.00 0.00 82 1015.1
20260507050620 12 0.0 0.0 0.00 0.00 0.00 82 1015.1
20260507045620 12 0.0 0.0 0.00 0.00 0.00 83 1014.9
20260507044620 11 0.0 0.0 0.00 0.00 0.00 83 1014.9
20260507043621 11 0.0 0.0 0.00 0.00 0.00 83 1014.8
20260507042620 11 0.0 0.0 0.00 0.00 0.00 83 1014.7
20260507041620 11 0.0 0.0 0.00 0.00 0.00 83 1014.6
20260507040621 11 0.0 0.0 0.00 0.00 0.00 82 1014.6
20260507035621 12 0.0 0.0 0.00 0.00 0.00 81 1014.6
20260507034620 12 0.0 0.0 0.00 0.00 0.00 82 1014.5
20260507033621 11 0.0 0.0 0.00 0.00 0.00 82 1014.4
20260507032620 12 0.0 0.0 0.00 0.00 0.00 81 1014.5
20260507031620 12 0.0 0.0 0.00 0.00 0.00 80 1014.5
20260507030620 12 0.0 0.0 0.00 0.00 0.00 80 1014.5
20260507025621 12 0.0 0.0 0.00 0.00 0.00 80 1014.5
20260507024621 12 0.0 0.0 0.00 0.00 0.00 80 1014.5
20260507023620 12 0.0 0.0 0.00 0.00 0.00 80 1014.5
20260507022620 12 0.0 0.0 0.00 0.00 0.00 80 1014.4
20260507021621 12 0.0 0.0 0.00 0.00 0.00 80 1014.5
20260507020620 12 0.0 0.0 0.00 0.00 0.00 80 1014.4
20260507015620 12 0.0 0.0 0.00 0.00 0.00 79 1014.4
20260507014621 12 0.0 0.0 0.00 0.00 0.00 79 1014.3
20260507013620 12 0.0 0.0 0.00 0.00 0.00 80 1014.3
20260507012620 12 0.0 0.0 0.00 0.00 0.00 80 1014.1
20260507011621 12 0.0 0.0 0.00 0.00 0.00 81 1014.2
20260507010620 12 0.0 0.0 0.00 0.00 0.00 80 1014.1
20260507005620 13 0.0 0.0 0.00 0.00 0.00 80 1014.3
20260507004621 13 0.0 0.0 0.00 0.00 0.00 79 1014.4
20260507003620 13 0.0 0.0 0.00 0.00 0.00 80 1014.4
20260507002620 13 0.0 0.0 0.00 0.00 0.00 80 1014.3
20260507001621 13 0.0 0.0 0.00 0.00 0.00 80 1014.4
20260507000620 13 0.0 0.0 0.00 0.00 0.00 78 1014.4
20260506235620 14 0.0 0.0 0.00 0.00 0.00 75 1014.4
20260506234620 15 0.0 0.0 0.00 0.00 0.00 70 1014.4
20260506233620 15 0.0 0.0 0.00 0.00 0.00 67 1014.3
20260506232621 16 0.0 0.0 0.00 0.00 0.00 66 1014.4
20260506231620 16 0.0 0.0 0.00 0.00 0.00 69 1014.3
20260506230620 16 0.0 0.0 0.00 0.00 0.00 81 1013.9
20260506225620 16 0.0 0.0 0.00 0.00 0.00 82 1014.0
20260506224620 16 0.0 0.0 0.00 0.00 0.00 82 1014.1
20260506223620 16 0.0 0.0 0.00 0.00 0.00 82 1014.2
20260506222620 16 0.0 0.0 0.00 0.00 0.00 82 1014.3
20260506221620 16 0.0 0.0 0.00 0.00 0.00 82 1014.3
20260506220620 16 0.0 0.0 0.00 0.00 0.00 82 1014.3
20260506215620 16 0.0 0.0 0.00 0.00 0.00 82 1014.3
20260506214620 16 0.0 0.0 0.00 0.00 0.00 81 1014.2
20260506213620 16 0.0 0.0 0.00 0.00 0.00 81 1014.2
20260506212620 16 0.0 0.0 0.00 0.00 0.00 81 1014.2
20260506211621 16 0.0 0.0 0.00 0.00 0.00 81 1014.1
20260506210620 16 0.0 0.0 0.00 0.00 0.00 81 1014.1
20260506205620 17 0.0 0.0 0.00 0.00 0.00 81 1014.2
20260506204620 17 0.0 0.0 0.00 0.00 0.00 81 1014.1
20260506203620 17 0.0 0.0 0.00 0.00 0.00 81 1014.1
20260506202620 17 0.0 0.0 0.00 0.00 0.00 81 1014.1
20260506201620 17 0.0 0.0 0.00 0.00 0.00 81 1013.9
20260506200620 17 0.0 0.0 0.00 0.00 0.00 82 1013.7
20260506195620 17 0.0 0.0 0.00 0.00 0.00 82 1013.7
20260506194620 17 0.0 0.0 0.00 0.00 0.00 82 1013.6
20260506193620 17 0.0 0.0 0.00 0.00 0.00 82 1013.3
20260506192620 17 0.0 0.0 0.00 0.00 0.00 81 1013.3
20260506191620 17 0.0 0.0 0.00 0.00 0.00 81 1013.1
20260506190620 17 0.0 0.0 0.00 0.00 0.00 81 1013.1
20260506185620 17 0.0 0.0 0.00 0.00 0.00 81 1012.9
20260506184620 17 0.0 0.0 0.00 0.00 0.00 81 1012.8
20260506183620 17 0.0 0.0 0.00 0.00 0.00 80 1012.7
20260506182620 17 0.0 0.0 0.00 0.00 0.00 80 1012.5
20260506181620 17 0.0 0.0 0.00 0.00 0.00 79 1012.6
20260506180620 17 0.0 0.0 0.00 0.00 0.00 79 1012.6
20260506175619 17 0.0 0.0 0.00 0.00 0.00 78 1012.6
20260506174620 18 0.0 0.0 0.00 0.00 0.00 78 1012.5
20260506173619 18 0.0 0.0 0.00 0.00 0.00 77 1012.4
20260506172620 18 0.0 0.0 0.00 0.00 0.00 77 1012.5
20260506171620 18 0.0 0.0 0.00 0.00 0.00 76 1012.5
20260506170619 18 0.0 0.0 0.00 0.00 0.00 75 1012.4
20260506165619 18 0.0 0.0 0.00 0.00 0.00 74 1012.4
20260506164620 19 0.0 0.0 0.00 0.00 0.00 73 1012.4
20260506163620 19 0.0 0.0 0.00 0.00 0.00 72 1012.6
20260506162620 20 0.0 0.0 0.00 0.00 0.00 71 1012.5
20260506161620 20 0.0 0.0 0.00 0.00 0.00 70 1012.6
20260506160620 20 0.0 0.0 0.00 0.00 0.00 71 1012.6
20260506155619 19 0.0 0.0 0.00 0.00 0.00 71 1012.8
20260506154619 20 0.0 0.0 0.00 0.00 0.00 69 1012.8
20260506153620 20 0.0 0.0 0.00 0.00 0.00 69 1012.6
20260506152620 20 0.0 0.0 0.00 0.00 0.00 69 1012.6
20260506151620 20 0.0 0.0 0.00 0.00 0.00 68 1012.6
20260506150620 21 0.0 0.0 0.00 0.00 0.00 66 1012.5
20260506145619 20 0.0 0.0 0.00 0.00 0.00 67 1012.6
20260506144620 21 0.0 0.0 0.00 0.00 0.00 65 1012.6
20260506143620 21 0.0 0.0 0.00 0.00 0.00 65 1012.5
20260506142620 21 0.0 0.0 0.00 0.00 0.00 65 1012.6
20260506141619 21 0.0 0.0 0.00 0.00 0.00 65 1012.6
20260506140619 21 0.0 0.0 0.00 0.00 0.00 64 1012.5
20260506135619 21 0.0 0.0 0.00 0.00 0.00 63 1012.5
20260506134619 21 0.0 0.0 0.00 0.00 0.00 64 1012.5
20260506133620 21 0.0 0.0 0.00 0.00 0.00 65 1012.5
20260506132620 21 0.0 0.0 0.00 0.00 0.00 65 1012.6
20260506131620 21 0.0 0.0 0.00 0.00 0.00 66 1012.7
20260506130620 21 0.0 0.0 0.00 0.00 0.00 65 1012.7
20260506125620 21 0.0 0.0 0.00 0.00 0.00 66 1012.8
20260506124620 21 0.0 0.0 0.00 0.00 0.00 65 1012.8
20260506123620 21 0.0 0.0 0.00 0.00 0.00 66 1012.8
20260506122620 21 0.0 0.0 0.00 0.00 0.00 67 1013.0
20260506121620 21 0.0 0.0 0.00 0.00 0.00 66 1013.1
20260506120620 21 0.0 0.0 0.00 0.00 0.00 66 1013.1
20260506115620 21 0.0 0.0 0.00 0.00 0.00 67 1012.9
20260506114620 21 0.0 0.0 0.00 0.00 0.00 67 1013.0
20260506113620 21 0.0 0.0 0.00 0.00 0.00 67 1012.9
20260506112619 21 0.0 0.0 0.00 0.00 0.00 65 1012.9
20260506111619 21 0.0 0.0 0.00 0.00 0.00 66 1012.7
20260506110620 21 0.0 0.0 0.00 0.00 0.00 68 1012.9
20260506105620 19 0.0 0.0 0.00 0.00 0.00 73 1013.2
20260506104619 18 0.0 0.0 0.00 0.00 0.00 74 1013.2
20260506103623 19 0.0 0.0 0.00 0.00 0.00 73 1013.2
20260506102620 18 0.0 0.0 0.00 0.00 0.00 75 1013.2
20260506101620 18 0.0 0.0 0.00 0.00 0.00 77 1013.2
20260506100620 18 0.0 0.0 0.00 0.00 0.00 76 1013.1
20260506095619 18 0.0 0.0 0.00 0.00 0.00 74 1013.3
20260506094619 18 0.0 0.0 0.00 0.00 0.00 74 1013.2
20260506093619 18 0.0 0.0 0.00 0.00 0.00 73 1013.1
20260506092620 18 0.0 0.0 0.00 0.00 0.00 72 1013.0
20260506091620 18 0.0 0.0 0.00 0.00 0.00 71 1013.0
20260506090619 18 0.0 0.0 0.00 0.00 0.00 73 1013.0
20260506085620 17 0.0 0.0 0.00 0.00 0.00 76 1012.9
20260506084619 17 0.0 0.0 0.00 0.00 0.00 76 1012.9
20260506083620 17 0.0 0.0 0.00 0.00 0.00 77 1012.7
20260506082619 17 0.0 0.0 0.00 0.00 0.00 77 1012.6
20260506081620 17 0.0 0.0 0.00 0.00 0.00 76 1012.6
20260506080619 17 0.0 0.0 0.00 0.00 0.00 74 1012.5
20260506072619 17 0.0 0.0 0.00 0.00 0.00 74 1012.5
20260506071620 17 0.0 0.0 0.00 0.00 0.00 75 1012.4
20260506070620 16 0.0 0.0 0.00 0.00 0.00 78 1012.5